• In Portugal
  • List of Countries
  • For 7 days
  • Water Temperature
  • Satellite Maps
  • Weather Map
  • Weather Widgets
  • user-avatar
    Login

    Hourly Weather Ulan Bator

    Today, 15 December, Friday

    Time Temperature Precipitation Wind Pressure Humidity
    00:00 -20°C° 0 mm 1 mps 656 mmHg 94%
    01:00 -20°C° 0 mm 1 mps 656 mmHg 93%
    02:00 -20°C° 0 mm 1 mps 656 mmHg 94%
    03:00 -20°C° 0 mm 1 mps 656 mmHg 94%
    04:00 -20°C° 0 mm 1 mps 656 mmHg 94%
    05:00 -20°C° 0 mm 1 mps 656 mmHg 95%
    06:00 -23°C° 0 mm 2 mps 656 mmHg 95%
    07:00 -21°C° 0 mm 1 mps 657 mmHg 96%
    08:00 -23°C° 0 mm 2 mps 657 mmHg 95%
    09:00 -24°C° 0 mm 3 mps 657 mmHg 94%
    10:00 -24°C° 0 mm 4 mps 657 mmHg 93%
    11:00 -24°C° 0 mm 5 mps 657 mmHg 90%
    12:00 -24°C° 0 mm 6 mps 657 mmHg 86%
    13:00 -23°C° 0 mm 6 mps 657 mmHg 82%
    14:00 -23°C° 0 mm 6 mps 657 mmHg 85%
    15:00 -24°C° 0 mm 5 mps 658 mmHg 87%
    16:00 -24°C° 0 mm 5 mps 658 mmHg 89%
    17:00 -23°C° 0 mm 4 mps 658 mmHg 90%
    18:00 -23°C° 0 mm 4 mps 658 mmHg 90%
    19:00 -23°C° 0 mm 3 mps 658 mmHg 90%
    20:00 -23°C° 0 mm 3 mps 658 mmHg 90%
    21:00 -23°C° 0 mm 3 mps 658 mmHg 90%
    22:00 -21°C° 0 mm 2 mps 658 mmHg 89%
    23:00 -21°C° 0 mm 2 mps 658 mmHg 89%

    Tomorrow, 16 December, Saturday

    Time Temperature Precipitation Wind Pressure Humidity
    00:00 -21°C° 0 mm 2 mps 658 mmHg 89%
    01:00 -21°C° 0 mm 2 mps 659 mmHg 89%
    02:00 -21°C° 0 mm 2 mps 658 mmHg 89%
    03:00 -21°C° 0 mm 2 mps 658 mmHg 88%
    04:00 -21°C° 0 mm 2 mps 658 mmHg 88%
    05:00 -21°C° 0 mm 2 mps 658 mmHg 88%
    06:00 -21°C° 0 mm 2 mps 657 mmHg 87%
    07:00 -21°C° 0 mm 2 mps 657 mmHg 87%
    08:00 -20°C° 0 mm 2 mps 657 mmHg 86%
    09:00 -19°C° 0 mm 2 mps 657 mmHg 85%
    10:00 -19°C° 0 mm 2 mps 657 mmHg 84%
    11:00 -18°C° 0 mm 2 mps 657 mmHg 83%
    12:00 -17°C° 0 mm 2 mps 656 mmHg 81%
    13:00 -17°C° 0 mm 2 mps 656 mmHg 80%
    14:00 -17°C° 0 mm 2 mps 655 mmHg 81%
    15:00 -18°C° 0 mm 2 mps 655 mmHg 82%
    16:00 -17°C° 0 mm 1 mps 655 mmHg 83%
    17:00 -19°C° 0 mm 2 mps 655 mmHg 83%
    18:00 -19°C° 0 mm 2 mps 655 mmHg 82%
    19:00 -19°C° 0 mm 2 mps 654 mmHg 82%
    20:00 -19°C° 0 mm 2 mps 654 mmHg 82%
    21:00 -17°C° 0 mm 1 mps 654 mmHg 82%
    22:00 -17°C° 0 mm 1 mps 654 mmHg 82%
    23:00 -17°C° 0 mm 1 mps 653 mmHg 82%

    Day after tomorrow, 17 December, Sunday

    Time Temperature Precipitation Wind Pressure Humidity
    00:00 -17°C° 0 mm 1 mps 653 mmHg 82%
    01:00 -17°C° 0 mm 1 mps 653 mmHg 82%
    02:00 -17°C° 0 mm 1 mps 653 mmHg 82%
    03:00 -17°C° 0 mm 1 mps 652 mmHg 82%
    04:00 -19°C° 0 mm 2 mps 652 mmHg 82%
    05:00 -18°C° 0 mm 2 mps 652 mmHg 82%
    06:00 -18°C° 0 mm 2 mps 652 mmHg 82%
    07:00 -18°C° 0 mm 2 mps 652 mmHg 82%
    08:00 -17°C° 0 mm 2 mps 653 mmHg 82%
    09:00 -16°C° 0 mm 2 mps 653 mmHg 82%
    10:00 -15°C° 0 mm 2 mps 653 mmHg 82%
    11:00 -15°C° 0 mm 3 mps 653 mmHg 82%
    12:00 -14°C° 0 mm 3 mps 653 mmHg 83%
    13:00 -15°C° 0 mm 4 mps 653 mmHg 84%
    14:00 -15°C° 0 mm 4 mps 653 mmHg 86%
    15:00 -15°C° 0 mm 3 mps 653 mmHg 88%
    16:00 -16°C° 0 mm 3 mps 653 mmHg 90%
    17:00 -16°C° 0 mm 3 mps 654 mmHg 90%
    18:00 -17°C° 0 mm 4 mps 654 mmHg 89%
    19:00 -17°C° 0 mm 4 mps 654 mmHg 89%
    20:00 -17°C° 0 mm 4 mps 654 mmHg 89%
    21:00 -17°C° 0 mm 4 mps 655 mmHg 88%
    22:00 -17°C° 0 mm 4 mps 655 mmHg 88%
    23:00 -17°C° 0 mm 4 mps 655 mmHg 88%

    18 December, Monday

    Time Temperature Precipitation Wind Pressure Humidity
    00:00 -17°C° 0 mm 4 mps 655 mmHg 89%
    01:00 -18°C° 0 mm 5 mps 655 mmHg 89%
    02:00 -18°C° 0 mm 5 mps 655 mmHg 89%
    03:00 -18°C° 0 mm 5 mps 656 mmHg 89%
    04:00 -18°C° 0 mm 5 mps 656 mmHg 89%
    05:00 -19°C° 0 mm 5 mps 656 mmHg 89%
    06:00 -19°C° 0 mm 5 mps 656 mmHg 89%
    07:00 -19°C° 0 mm 5 mps 657 mmHg 88%
    08:00 -19°C° 0 mm 5 mps 657 mmHg 87%
    09:00 -17°C° 0 mm 4 mps 657 mmHg 86%
    10:00 -17°C° 0 mm 4 mps 657 mmHg 85%
    11:00 -16°C° 0 mm 4 mps 657 mmHg 84%
    12:00 -16°C° 0 mm 4 mps 657 mmHg 82%
    13:00 -15°C° 0 mm 4 mps 656 mmHg 81%
    14:00 -15°C° 0 mm 3 mps 656 mmHg 83%
    15:00 -16°C° 0 mm 3 mps 656 mmHg 84%
    16:00 -16°C° 0 mm 2 mps 655 mmHg 85%
    17:00 -16°C° 0 mm 2 mps 655 mmHg 85%
    18:00 -16°C° 0 mm 2 mps 655 mmHg 86%
    19:00 -16°C° 0 mm 2 mps 655 mmHg 86%
    20:00 -16°C° 0 mm 2 mps 655 mmHg 86%
    21:00 -16°C° 0 mm 2 mps 655 mmHg 86%
    22:00 -16°C° 0 mm 2 mps 655 mmHg 86%
    23:00 -16°C° 0 mm 2 mps 655 mmHg 88%

    19 December, Tuesday

    Time Temperature Precipitation Wind Pressure Humidity
    00:00 -16°C° 0 mm 2 mps 655 mmHg 89%
    01:00 -16°C° 0 mm 2 mps 654 mmHg 91%
    02:00 -16°C° 0.1 mm 2 mps 655 mmHg 92%
    03:00 -16°C° 0.1 mm 3 mps 655 mmHg 94%
    04:00 -16°C° 0.1 mm 3 mps 655 mmHg 95%
    05:00 -16°C° 0 mm 3 mps 655 mmHg 94%
    06:00 -16°C° 0 mm 4 mps 655 mmHg 94%
    07:00 -16°C° 0 mm 4 mps 655 mmHg 93%
    08:00 -16°C° 0 mm 4 mps 655 mmHg 91%
    09:00 -16°C° 0 mm 4 mps 655 mmHg 90%
    10:00 -15°C° 0 mm 4 mps 656 mmHg 88%
    11:00 -15°C° 0 mm 4 mps 655 mmHg 85%
    12:00 -14°C° 0 mm 5 mps 655 mmHg 82%
    13:00 -14°C° 0 mm 5 mps 655 mmHg 80%
    14:00 -14°C° 0 mm 4 mps 655 mmHg 80%
    15:00 -15°C° 0 mm 4 mps 655 mmHg 81%
    16:00 -15°C° 0 mm 4 mps 655 mmHg 81%
    17:00 -15°C° 0 mm 3 mps 655 mmHg 81%
    18:00 -15°C° 0 mm 3 mps 654 mmHg 81%
    19:00 -14°C° 0 mm 2 mps 654 mmHg 81%
    20:00 -14°C° 0 mm 2 mps 654 mmHg 80%
    21:00 -16°C° 0 mm 3 mps 654 mmHg 80%
    22:00 -16°C° 0 mm 3 mps 653 mmHg 80%
    23:00 -16°C° 0 mm 3 mps 653 mmHg 79%

    20 December, Wednesday

    Time Temperature Precipitation Wind Pressure Humidity
    00:00 -16°C° 0 mm 3 mps 653 mmHg 77%
    01:00 -15°C° 0 mm 3 mps 653 mmHg 75%
    02:00 -15°C° 0 mm 3 mps 653 mmHg 74%
    03:00 -15°C° 0 mm 3 mps 653 mmHg 72%
    04:00 -15°C° 0 mm 3 mps 653 mmHg 70%
    05:00 -15°C° 0 mm 3 mps 653 mmHg 69%
    06:00 -14°C° 0 mm 2 mps 653 mmHg 69%
    07:00 -14°C° 0 mm 2 mps 653 mmHg 68%
    08:00 -13°C° 0 mm 2 mps 653 mmHg 68%
    09:00 -14°C° 0 mm 3 mps 653 mmHg 67%
    10:00 -13°C° 0 mm 3 mps 654 mmHg 67%
    11:00 -13°C° 0 mm 3 mps 654 mmHg 66%
    12:00 -12°C° 0 mm 3 mps 654 mmHg 66%
    13:00 -10°C° 0 mm 3 mps 654 mmHg 65%
    14:00 -12°C° 0 mm 3 mps 654 mmHg 66%
    15:00 -12°C° 0 mm 2 mps 654 mmHg 66%
    16:00 -13°C° 0 mm 2 mps 654 mmHg 67%
    17:00 -13°C° 0 mm 2 mps 654 mmHg 65%
    18:00 -14°C° 0 mm 2 mps 654 mmHg 64%
    19:00 -12°C° 0 mm 1 mps 654 mmHg 63%
    20:00 -12°C° 0 mm 1 mps 654 mmHg 62%
    21:00 -12°C° 0 mm 1 mps 654 mmHg 61%
    22:00 -12°C° 0 mm 1 mps 654 mmHg 60%
    23:00 -12°C° 0 mm 1 mps 654 mmHg 59%
    Show more